Weather History for Newark Heath, OH

Change the Weather History Date:

Saturday, November 30, 2013

  Actual Average Record
Temperature  
Mean Temperature 32 °F -  
Max Temperature 43 °F 44 °F 66 °F (1991)
Min Temperature 21 °F 30 °F -4 °F (1958)
Degree Days  
Heating Degree Days 33    
Moisture  
Dew Point 22 °F    
Average Humidity 75    
Maximum Humidity 88    
Minimum Humidity 51    
Precipitation  
Precipitation 0.00 in - - ()
Sea Level Pressure  
Sea Level Pressure 30.39 in    
Wind  
Wind Speed 1 mph (South)    
Max Wind Speed 8 mph    
Max Gust Speed -    
Visibility 9 miles    
Events      
Averages and records for this station are not official NWS values.
T = Trace of Precipitation, MM = Missing Value Source: NWS Daily Summary

Daily Weather History Graph

Daily Weather History Graph

Search for Another Location

Airport:

Trip Planner

Search our weather history database for the weather conditions in past years. The results will help you decide how hot, cold, wet, or windy it might be!

Date:

Astronomy

Nov. 30, 2013 Rise Set
Actual Time 7:31 AM EST 5:05 PM EST
Civil Twilight 7:01 AM EST 5:35 PM EST
Nautical Twilight 6:28 AM EST 6:08 PM EST
Astronomical Twilight 5:55 AM EST 6:41 PM EST
Moon 4:41 AM EST 3:28 PM EST
Length of Visible Light 10h 33m
Length of Day
9h 33m
Waning Crescent, 7% of the Moon is Illuminated
Nov 30
Waning Crescent
Dec 2
New
Dec 9
First Quarter
Dec 17
Full
Dec 25
Last Quarter

Hourly Weather History & Observations

Time (EST) Temp. Windchill Dew Point Humidity Pressure Visibility Wind Dir Wind Speed Gust Speed Precip Events Conditions
12:54 AM 21.9 °F - 17.1 °F 82% 30.57 in 8.0 mi Calm Calm - N/A   Clear
1:54 AM 23.0 °F - 18.0 °F 81% 30.55 in 9.0 mi Calm Calm - N/A   Clear
2:54 AM 23.0 °F - 18.0 °F 81% 30.54 in 8.0 mi Calm Calm - N/A   Clear
3:54 AM 25.0 °F - 19.0 °F 78% 30.52 in 8.0 mi Calm Calm - N/A   Clear
4:54 AM 21.9 °F - 18.0 °F 85% 30.51 in 8.0 mi Calm Calm - N/A   Clear
5:54 AM 24.1 °F 19.7 °F 19.0 °F 81% 30.51 in 8.0 mi ENE 3.5 mph - N/A   Clear
6:54 AM 25.0 °F - 19.0 °F 78% 30.50 in 9.0 mi Calm Calm - N/A   Clear
7:54 AM 25.0 °F - 19.0 °F 78% 30.48 in 7.0 mi Calm Calm - N/A   Clear
8:54 AM 26.1 °F - 21.0 °F 81% 30.48 in 7.0 mi Calm Calm - N/A   Clear
9:54 AM 28.9 °F - 23.0 °F 78% 30.47 in 8.0 mi Calm Calm - N/A   Clear
10:54 AM 32.0 °F 27.5 °F 24.1 °F 73% 30.45 in 10.0 mi South 4.6 mph - N/A   Clear
11:54 AM 36.0 °F 33.3 °F 25.0 °F 64% 30.41 in 10.0 mi SW 3.5 mph - N/A   Clear
12:54 PM 37.9 °F 32.1 °F 26.1 °F 62% 30.37 in 10.0 mi South 8.1 mph - N/A   Clear
1:54 PM 39.9 °F 35.1 °F 26.1 °F 58% 30.33 in 10.0 mi SSW 6.9 mph - N/A   Clear
2:54 PM 42.1 °F 37.1 °F 27.0 °F 55% 30.30 in 10.0 mi SSW 8.1 mph - N/A   Clear
3:54 PM 43.0 °F 38.8 °F 26.1 °F 51% 30.29 in 10.0 mi South 6.9 mph - N/A   Clear
4:54 PM 39.9 °F 36.7 °F 26.1 °F 58% 30.27 in 10.0 mi South 4.6 mph - N/A   Clear
5:54 PM 35.1 °F - 26.1 °F 70% 30.26 in 10.0 mi Calm Calm - N/A   Clear
6:54 PM 28.9 °F - 25.0 °F 85% 30.27 in 10.0 mi Calm Calm - N/A   Clear
7:54 PM 28.9 °F - 24.1 °F 82% 30.26 in 9.0 mi Calm Calm - N/A   Clear
8:54 PM 26.1 °F - 23.0 °F 88% 30.25 in 9.0 mi Calm Calm - N/A   Partly Cloudy
9:54 PM 27.0 °F - 23.0 °F 85% 30.23 in 9.0 mi Calm Calm - N/A   Clear
10:54 PM 27.0 °F - 23.0 °F 85% 30.22 in 10.0 mi Calm Calm - N/A   Mostly Cloudy
11:54 PM 25.0 °F - 21.9 °F 88% 30.21 in 9.0 mi Calm Calm - N/A   Clear